,,,PA_Meas_PMT16A,,PR_Meas_QMR101_102,,RH_Meas_QMH101,,SR_Meas_QMS101,,TA_Meas_QMH101,,GenWind,,GenWind,
date,time,status,PA,status,PR,status,RH,status,SR,status,TA,status,DirAvg,status,SpdAvg,
2014-01-17, 00:00:04,VALID,1012.03,VALID,0,VALID,104,VALID,0,VALID,22.3693,VALID,355,VALID,0.1875,
2014-01-17, 00:01:04,VALID,1012.02,VALID,0,VALID,104,VALID,0,VALID,22.3498,VALID,355,VALID,0.0914062,
2014-01-17, 00:02:04,VALID,1011.99,VALID,0,VALID,104,VALID,0,VALID,22.3498,VALID,337,VALID,0.196094,
2014-01-17, 00:03:04,VALID,1012,VALID,0,VALID,104,VALID,0.112112,VALID,22.3286,VALID,337,VALID,0.378516,
2014-01-17, 00:04:04,VALID,1012,VALID,0,VALID,104,VALID,0,VALID,22.3303,VALID,337,VALID,0.00273437,
2014-01-17, 00:05:04,VALID,1012.02,VALID,0,VALID,104,VALID,0,VALID,22.3303,VALID,337,VALID,0.407422,
2014-01-17, 00:06:04,VALID,1012.03,VALID,0,VALID,104,VALID,0.112112,VALID,22.3498,VALID,337,VALID,0.130859,
2014-01-17, 00:07:04,VALID,1012.01,VALID,0,VALID,104,VALID,0.112112,VALID,22.3498,VALID,337,VALID,0.00585938,
2014-01-17, 00:08:04,VALID,1012.02,VALID,0,VALID,104,VALID,0,VALID,22.3091,VALID,337,VALID,0.429297,
2014-01-17, 00:09:04,VALID,1012,VALID,0,VALID,104,VALID,0.112112,VALID,22.3303,VALID,332,VALID,0.325391,
2014-01-17, 00:10:04,VALID,1012.01,VALID,0,VALID,104,VALID,0.112112,VALID,22.3286,VALID,330,VALID,0.240625,
2014-01-17, 00:11:04,VALID,1012,VALID,0,VALID,104,VALID,0,VALID,22.3498,VALID,288,VALID,0.214062,
2014-01-17, 00:12:04,VALID,1011.98,VALID,0,VALID,104,VALID,0,VALID,22.3286,VALID,342,VALID,0.84375,
2014-01-17, 00:13:04,VALID,1011.97,VALID,0,VALID,104,VALID,0.112112,VALID,22.3693,VALID,344,VALID,0.316016,
2014-01-17, 00:14:04,VALID,1011.98,VALID,0,VALID,104,VALID,0.112112,VALID,22.3693,VALID,344,VALID,0.157813,
2014-01-17, 00:15:04,VALID,1011.94,VALID,0,VALID,104,VALID,0,VALID,22.3481,VALID,344,VALID,0.239453,
2014-01-17, 00:16:04,VALID,1011.93,VALID,0,VALID,104,VALID,0,VALID,22.3498,VALID,344,VALID,0,
2014-01-17, 00:17:04,VALID,1011.93,VALID,0,VALID,104,VALID,0,VALID,22.3286,VALID,339,VALID,0.266797,
2014-01-17, 00:18:04,VALID,1011.92,VALID,0,VALID,104,VALID,0.112112,VALID,22.3286,VALID,335,VALID,0.636328,
2014-01-17, 00:19:04,VALID,1011.91,VALID,0,VALID,104,VALID,0,VALID,22.3303,VALID,337,VALID,0.471094,
2014-01-17, 00:20:04,VALID,1011.91,VALID,0,VALID,104,VALID,0.112112,VALID,22.3498,VALID,325,VALID,1.1043,
2014-01-17, 00:21:04,VALID,1011.9,VALID,0,VALID,104,VALID,0.112112,VALID,22.3498,VALID,330,VALID,0.180078,
2014-01-17, 00:22:04,VALID,1011.86,VALID,0,VALID,104,VALID,0.112112,VALID,22.3481,VALID,305,VALID,0.392578,
2014-01-17, 00:23:04,VALID,1011.84,VALID,0,VALID,104,VALID,0,VALID,22.3498,VALID,305,VALID,0.180078,
2014-01-17, 00:24:04,VALID,1011.8,VALID,0,VALID,104,VALID,0.112112,VALID,22.3498,VALID,305,VALID,0.3875,
2014-01-17, 00:25:04,VALID,1011.82,VALID,0,VALID,104,VALID,0.112112,VALID,22.3286,VALID,319,VALID,0.705859,
2014-01-17, 00:26:04,VALID,1011.81,VALID,0,VALID,104,VALID,0,VALID,22.3498,VALID,319,VALID,0.441016,
2014-01-17, 00:27:04,VALID,1011.83,VALID,0,VALID,104,VALID,0.112112,VALID,22.3286,VALID,319,VALID,0.201953,
2014-01-17, 00:28:04,VALID,1011.84,VALID,0,VALID,104,VALID,0.112112,VALID,22.3498,VALID,319,VALID,0,
2014-01-17, 00:29:04,VALID,1011.81,VALID,0,VALID,104,VALID,0.112112,VALID,22.3303,VALID,319,VALID,0.05625,
2014-01-17, 00:30:04,VALID,1011.83,VALID,0,VALID,104,VALID,0.112112,VALID,22.3091,VALID,319,VALID,0.561719,
2014-01-17, 00:31:04,VALID,1011.83,VALID,0,VALID,104,VALID,0.112112,VALID,22.2702,VALID,318,VALID,0.496875,
2014-01-17, 00:32:04,VALID,1011.83,VALID,0,VALID,104,VALID,0,VALID,22.2897,VALID,318,VALID,0.240234,
2014-01-17, 00:33:04,VALID,1011.79,VALID,0,VALID,104,VALID,0.112112,VALID,22.3108,VALID,351,VALID,1.02969,
2014-01-17, 00:34:04,VALID,1011.82,VALID,0,VALID,104,VALID,0,VALID,22.2914,VALID,351,VALID,0.175,
2014-01-17, 00:35:04,VALID,1011.81,VALID,0,VALID,104,VALID,0,VALID,22.3108,VALID,351,VALID,0.83125,
2014-01-17, 00:36:04,VALID,1011.8,VALID,0,VALID,104,VALID,0,VALID,22.2897,VALID,351,VALID,0.964844,
2014-01-17, 00:37:04,VALID,1011.79,VALID,0,VALID,104,VALID,0.112112,VALID,22.2897,VALID,351,VALID,0.243359,
2014-01-17, 00:38:04,VALID,1011.77,VALID,0,VALID,104,VALID,0,VALID,22.2914,VALID,351,VALID,0.338672,
2014-01-17, 00:39:04,VALID,1011.76,VALID,0,VALID,104,VALID,0,VALID,22.2719,VALID,351,VALID,0.463672,
2014-01-17, 00:40:04,VALID,1011.75,VALID,0,VALID,104,VALID,0,VALID,22.2719,VALID,351,VALID,0.18125,
2014-01-17, 00:41:04,VALID,1011.75,VALID,0,VALID,104,VALID,0,VALID,22.2524,VALID,351,VALID,0.597656,
2014-01-17, 00:42:04,VALID,1011.74,VALID,0,VALID,104,VALID,0,VALID,22.2524,VALID,351,VALID,0.329688,
2014-01-17, 00:43:04,VALID,1011.73,VALID,0,VALID,104,VALID,0,VALID,22.2524,VALID,351,VALID,0.351563,
2014-01-17, 00:44:04,VALID,1011.73,VALID,0,VALID,104,VALID,0,VALID,22.2329,VALID,351,VALID,0.337891,
2014-01-17, 00:45:04,VALID,1011.71,VALID,0,VALID,104,VALID,0,VALID,22.2329,VALID,351,VALID,0.109375,
2014-01-17, 00:46:04,VALID,1011.71,VALID,0,VALID,104,VALID,0.112112,VALID,22.2118,VALID,351,VALID,0.445703,
2014-01-17, 00:47:04,VALID,1011.71,VALID,0,VALID,104,VALID,0.112112,VALID,22.2329,VALID,351,VALID,0.799609,
2014-01-17, 00:48:04,VALID,1011.67,VALID,0,VALID,104,VALID,0.112112,VALID,22.2134,VALID,351,VALID,0.506641,
2014-01-17, 00:49:04,VALID,1011.69,VALID,0,VALID,104,VALID,0,VALID,22.2134,VALID,351,VALID,0.0457031,
2014-01-17, 00:50:04,VALID,1011.71,VALID,0,VALID,104,VALID,0.112112,VALID,22.1728,VALID,351,VALID,0.146094,
2014-01-17, 00:51:04,VALID,1011.72,VALID,0,VALID,104,VALID,0.112112,VALID,22.194,VALID,331,VALID,0.38125,
2014-01-17, 00:52:04,VALID,1011.72,VALID,0,VALID,104,VALID,0.112112,VALID,22.1533,VALID,331,VALID,0.403516,
2014-01-17, 00:53:04,VALID,1011.74,VALID,0,VALID,104,VALID,0.112112,VALID,22.1745,VALID,331,VALID,0.580859,
2014-01-17, 00:54:04,VALID,1011.74,VALID,0,VALID,104,VALID,0.112112,VALID,22.155,VALID,331,VALID,0.532422,
2014-01-17, 00:55:04,VALID,1011.71,VALID,0,VALID,104,VALID,0.112112,VALID,22.1728,VALID,354,VALID,0.632422,
2014-01-17, 00:56:04,VALID,1011.69,VALID,0,VALID,104,VALID,0.112112,VALID,22.194,VALID,337,VALID,0.192578,
2014-01-17, 00:57:04,VALID,1011.69,VALID,0,VALID,104,VALID,0.112112,VALID,22.1533,VALID,337,VALID,0.154297,
2014-01-17, 00:58:04,VALID,1011.69,VALID,0,VALID,104,VALID,0.112112,VALID,22.1533,VALID,337,VALID,0.278516,
2014-01-17, 00:59:04,VALID,1011.71,VALID,0,VALID,104,VALID,0.112112,VALID,22.1533,VALID,337,VALID,0.516406,
2014-01-17, 01:00:04,VALID,1011.71,VALID,0,VALID,104,VALID,0.112112,VALID,22.1533,VALID,337,VALID,0.473047,
2014-01-17, 01:01:04,VALID,1011.71,VALID,0,VALID,104,VALID,0.112112,VALID,22.1728,VALID,295,VALID,0.939844,
2014-01-17, 01:02:04,VALID,1011.72,VALID,0,VALID,104,VALID,0.112112,VALID,22.1728,VALID,307,VALID,0.499609,
2014-01-17, 01:03:04,VALID,1011.7,VALID,0,VALID,104,VALID,0.112112,VALID,22.194,VALID,308,VALID,0.0722656,
2014-01-17, 01:04:04,VALID,1011.69,VALID,0,VALID,104,VALID,0.112112,VALID,22.194,VALID,322,VALID,0.631641,
2014-01-17, 01:05:04,VALID,1011.72,VALID,0,VALID,104,VALID,0.112112,VALID,22.194,VALID,335,VALID,0.201562,
2014-01-17, 01:06:04,VALID,1011.72,VALID,0,VALID,104,VALID,0.112112,VALID,22.1533,VALID,335,VALID,0.0582031,
2014-01-17, 01:07:04,VALID,1011.72,VALID,0,VALID,104,VALID,0.112112,VALID,22.1745,VALID,335,VALID,0.210156,
2014-01-17, 01:08:04,VALID,1011.7,VALID,0,VALID,104,VALID,0.112112,VALID,22.155,VALID,335,VALID,0.0078125,
2014-01-17, 01:09:04,VALID,1011.7,VALID,0,VALID,104,VALID,0.112112,VALID,22.1144,VALID,335,VALID,0.00273437,
2014-01-17, 01:10:04,VALID,1011.71,VALID,0,VALID,104,VALID,0.112112,VALID,22.1355,VALID,335,VALID,0.242578,
2014-01-17, 01:11:04,VALID,1011.72,VALID,0,VALID,104,VALID,0,VALID,22.1144,VALID,336,VALID,0.223828,
2014-01-17, 01:12:04,VALID,1011.73,VALID,0,VALID,104,VALID,0.112112,VALID,22.1161,VALID,335,VALID,0.598828,
2014-01-17, 01:13:04,VALID,1011.71,VALID,0,VALID,104,VALID,0.112112,VALID,22.1161,VALID,335,VALID,0.532031,
2014-01-17, 01:14:04,VALID,1011.74,VALID,0,VALID,104,VALID,0.112112,VALID,22.0754,VALID,335,VALID,0.189063,
2014-01-17, 01:15:04,VALID,1011.71,VALID,0,VALID,104,VALID,0.112112,VALID,22.056,VALID,335,VALID,0,
2014-01-17, 01:16:04,VALID,1011.73,VALID,0,VALID,104,VALID,0,VALID,22.0576,VALID,335,VALID,0.139453,
2014-01-17, 01:17:04,VALID,1011.7,VALID,0,VALID,104,VALID,0.112112,VALID,22.0771,VALID,335,VALID,0.0207031,
2014-01-17, 01:18:04,VALID,1011.72,VALID,0,VALID,104,VALID,0,VALID,22.017,VALID,335,VALID,0.000390625,
2014-01-17, 01:19:04,VALID,1011.69,VALID,0,VALID,104,VALID,0.112112,VALID,22.0382,VALID,335,VALID,0.100781,
2014-01-17, 01:20:04,VALID,1011.7,VALID,0,VALID,104,VALID,0.112112,VALID,22.0187,VALID,335,VALID,0.184375,
2014-01-17, 01:21:04,VALID,1011.67,VALID,0,VALID,104,VALID,0.112112,VALID,21.9975,VALID,333,VALID,0.252734,
2014-01-17, 01:22:04,VALID,1011.69,VALID,0,VALID,104,VALID,0,VALID,21.9975,VALID,333,VALID,0.215234,
2014-01-17, 01:23:04,VALID,1011.67,VALID,0,VALID,104,VALID,0.112112,VALID,21.9992,VALID,333,VALID,0.246094,
2014-01-17, 01:24:04,VALID,1011.68,VALID,0,VALID,104,VALID,0.112112,VALID,21.9992,VALID,333,VALID,0.338672,
2014-01-17, 01:25:04,VALID,1011.67,VALID,0,VALID,104,VALID,0.112112,VALID,21.9781,VALID,333,VALID,0.0667969,
2014-01-17, 01:26:04,VALID,1011.65,VALID,0,VALID,104,VALID,0.112112,VALID,21.9781,VALID,333,VALID,0.607031,
2014-01-17, 01:27:04,VALID,1011.62,VALID,0,VALID,104,VALID,0.112112,VALID,21.9975,VALID,335,VALID,0.271875,
2014-01-17, 01:28:04,VALID,1011.62,VALID,0,VALID,104,VALID,0.112112,VALID,22.0187,VALID,315,VALID,0.69375,
2014-01-17, 01:29:04,VALID,1011.58,VALID,0,VALID,104,VALID,0.112112,VALID,22.0187,VALID,301,VALID,0.314844,
2014-01-17, 01:30:04,VALID,1011.56,VALID,0,VALID,104,VALID,0.112112,VALID,22.0187,VALID,302,VALID,0.609766,
2014-01-17, 01:31:04,VALID,1011.57,VALID,0,VALID,104,VALID,0.112112,VALID,22.0187,VALID,309,VALID,0.447656,
2014-01-17, 01:32:04,VALID,1011.54,VALID,0,VALID,104,VALID,0.112112,VALID,21.9992,VALID,309,VALID,0.151953,
2014-01-17, 01:33:04,VALID,1011.55,VALID,0,VALID,104,VALID,0.112112,VALID,21.9992,VALID,316,VALID,0.418359,
2014-01-17, 01:34:04,VALID,1011.53,VALID,0,VALID,104,VALID,0.112112,VALID,21.9781,VALID,315,VALID,0.228516,
2014-01-17, 01:35:04,VALID,1011.5,VALID,0,VALID,104,VALID,0,VALID,21.9797,VALID,316,VALID,0,
2014-01-17, 01:36:04,VALID,1011.53,VALID,0,VALID,104,VALID,0.112112,VALID,21.9586,VALID,316,VALID,0.103906,
2014-01-17, 01:37:04,VALID,1011.55,VALID,0,VALID,104,VALID,0,VALID,21.9797,VALID,315,VALID,0.200781,
2014-01-17, 01:38:04,VALID,1011.58,VALID,0,VALID,104,VALID,0.112112,VALID,21.9586,VALID,315,VALID,0.109766,
2014-01-17, 01:39:04,VALID,1011.58,VALID,0,VALID,104,VALID,0,VALID,21.9391,VALID,315,VALID,0.242578,
2014-01-17, 01:40:04,VALID,1011.58,VALID,0,VALID,104,VALID,0,VALID,21.9196,VALID,313,VALID,0.357031,
2014-01-17, 01:41:04,VALID,1011.58,VALID,0,VALID,104,VALID,0,VALID,21.9408,VALID,313,VALID,0.0996094,
2014-01-17, 01:42:04,VALID,1011.57,VALID,0,VALID,104,VALID,0,VALID,21.9408,VALID,313,VALID,0.251953,
2014-01-17, 01:43:04,VALID,1011.59,VALID,0,VALID,104,VALID,0,VALID,21.9213,VALID,313,VALID,0.373047,
2014-01-17, 01:44:04,VALID,1011.58,VALID,0,VALID,104,VALID,0,VALID,21.9213,VALID,313,VALID,0.194922,
2014-01-17, 01:45:04,VALID,1011.61,VALID,0,VALID,104,VALID,0.112112,VALID,21.8824,VALID,313,VALID,0.127344,
2014-01-17, 01:46:04,VALID,1011.59,VALID,0,VALID,104,VALID,0,VALID,21.9018,VALID,304,VALID,0.367578,
2014-01-17, 01:47:04,VALID,1011.58,VALID,0,VALID,104,VALID,0.112112,VALID,21.9018,VALID,304,VALID,0.496484,
2014-01-17, 01:48:04,VALID,1011.58,VALID,0,VALID,104,VALID,0.112112,VALID,21.8612,VALID,305,VALID,0.0128906,
2014-01-17, 01:49:04,VALID,1011.57,VALID,0,VALID,104,VALID,0,VALID,21.8418,VALID,304,VALID,0,
2014-01-17, 01:50:04,VALID,1011.53,VALID,0,VALID,104,VALID,0.112112,VALID,21.8418,VALID,304,VALID,0.297266,
2014-01-17, 01:51:04,VALID,1011.5,VALID,0,VALID,104,VALID,0,VALID,21.8028,VALID,304,VALID,0.115625,
2014-01-17, 01:52:04,VALID,1011.46,VALID,0,VALID,104,VALID,0,VALID,21.8239,VALID,305,VALID,0.0605469,
2014-01-17, 01:53:04,VALID,1011.48,VALID,0,VALID,104,VALID,0.112112,VALID,21.7833,VALID,305,VALID,0.283594,
2014-01-17, 01:54:04,VALID,1011.45,VALID,0,VALID,104,VALID,0,VALID,21.7639,VALID,305,VALID,0.367969,
2014-01-17, 01:55:04,VALID,1011.44,VALID,0,VALID,104,VALID,0,VALID,21.7444,VALID,304,VALID,0.0347656,
2014-01-17, 01:56:04,VALID,1011.43,VALID,0,VALID,104,VALID,0,VALID,21.746,VALID,311,VALID,0.0796875,
2014-01-17, 01:57:04,VALID,1011.45,VALID,0,VALID,104,VALID,0.112112,VALID,21.7249,VALID,311,VALID,0.248828,
2014-01-17, 01:58:04,VALID,1011.44,VALID,0,VALID,104,VALID,0,VALID,21.7266,VALID,313,VALID,0.3875,
2014-01-17, 01:59:04,VALID,1011.42,VALID,0,VALID,104,VALID,0,VALID,21.7266,VALID,320,VALID,0.0140625,
2014-01-17, 02:00:04,VALID,1011.45,VALID,0,VALID,104,VALID,0,VALID,21.7054,VALID,320,VALID,0.464453,
2014-01-17, 02:01:04,VALID,1011.41,VALID,0,VALID,104,VALID,0,VALID,21.686,VALID,320,VALID,0.0792969,
2014-01-17, 02:02:04,VALID,1011.4,VALID,0,VALID,104,VALID,0.112112,VALID,21.686,VALID,320,VALID,0.371094,
2014-01-17, 02:03:04,VALID,1011.41,VALID,0,VALID,104,VALID,0,VALID,21.7071,VALID,320,VALID,0.159375,
2014-01-17, 02:04:04,VALID,1011.4,VALID,0,VALID,104,VALID,0.112112,VALID,21.6665,VALID,319,VALID,0.361328,
2014-01-17, 02:05:04,VALID,1011.41,VALID,0,VALID,104,VALID,0.112112,VALID,21.6665,VALID,327,VALID,0.358203,
2014-01-17, 02:06:04,VALID,1011.41,VALID,0,VALID,104,VALID,0.112112,VALID,21.686,VALID,327,VALID,0.408984,
2014-01-17, 02:07:04,VALID,1011.38,VALID,0,VALID,104,VALID,0.112112,VALID,21.686,VALID,327,VALID,0.394531,
2014-01-17, 02:08:04,VALID,1011.42,VALID,0,VALID,104,VALID,0.112112,VALID,21.7054,VALID,327,VALID,0.263672,
2014-01-17, 02:09:04,VALID,1011.42,VALID,0,VALID,104,VALID,0.112112,VALID,21.686,VALID,327,VALID,0.0914062,
2014-01-17, 02:10:04,VALID,1011.41,VALID,0,VALID,104,VALID,0.112112,VALID,21.686,VALID,326,VALID,0.474609,
2014-01-17, 02:11:04,VALID,1011.4,VALID,0,VALID,104,VALID,0.112112,VALID,21.686,VALID,315,VALID,0.589453,
2014-01-17, 02:12:04,VALID,1011.38,VALID,0,VALID,104,VALID,0.112112,VALID,21.7266,VALID,296,VALID,0.224219,
2014-01-17, 02:13:04,VALID,1011.4,VALID,0,VALID,104,VALID,0.112112,VALID,21.7054,VALID,296,VALID,0.202344,
2014-01-17, 02:14:04,VALID,1011.39,VALID,0,VALID,104,VALID,0.112112,VALID,21.7054,VALID,296,VALID,0.283984,
2014-01-17, 02:15:04,VALID,1011.38,VALID,0,VALID,104,VALID,0.112112,VALID,21.7054,VALID,296,VALID,0.138281,
2014-01-17, 02:16:04,VALID,1011.36,VALID,0,VALID,104,VALID,0.112112,VALID,21.7266,VALID,296,VALID,0.0289063,
2014-01-17, 02:17:04,VALID,1011.38,VALID,0,VALID,104,VALID,0.112112,VALID,21.6876,VALID,302,VALID,0.584766,
2014-01-17, 02:18:04,VALID,1011.36,VALID,0,VALID,104,VALID,0.112112,VALID,21.686,VALID,302,VALID,0.0515625,
2014-01-17, 02:19:04,VALID,1011.37,VALID,0,VALID,104,VALID,0.112112,VALID,21.6876,VALID,302,VALID,0,
2014-01-17, 02:20:04,VALID,1011.39,VALID,0,VALID,104,VALID,0.112112,VALID,21.6487,VALID,302,VALID,0,
2014-01-17, 02:21:04,VALID,1011.36,VALID,0,VALID,104,VALID,0,VALID,21.6292,VALID,302,VALID,0.355859,
2014-01-17, 02:22:04,VALID,1011.38,VALID,0,VALID,104,VALID,0.112112,VALID,21.6081,VALID,302,VALID,0.207031,
2014-01-17, 02:23:04,VALID,1011.37,VALID,0,VALID,104,VALID,0.112112,VALID,21.6487,VALID,309,VALID,0.371875,
2014-01-17, 02:24:04,VALID,1011.37,VALID,0,VALID,104,VALID,0,VALID,21.6292,VALID,308,VALID,0.313281,
2014-01-17, 02:25:04,VALID,1011.36,VALID,0,VALID,104,VALID,0.112112,VALID,21.6292,VALID,308,VALID,0.289063,
2014-01-17, 02:26:04,VALID,1011.37,VALID,0,VALID,104,VALID,0,VALID,21.6292,VALID,305,VALID,0.108984,
2014-01-17, 02:27:04,VALID,1011.35,VALID,0,VALID,104,VALID,0,VALID,21.6487,VALID,307,VALID,0.533203,
2014-01-17, 02:28:04,VALID,1011.35,VALID,0,VALID,104,VALID,0.112112,VALID,21.6276,VALID,306,VALID,0.274219,
2014-01-17, 02:29:04,VALID,1011.32,VALID,0,VALID,104,VALID,0.112112,VALID,21.647,VALID,316,VALID,0.786719,
2014-01-17, 02:30:04,VALID,1011.31,VALID,0,VALID,104,VALID,0,VALID,21.7071,VALID,281,VALID,0.960547,
2014-01-17, 02:31:04,VALID,1011.32,VALID,0,VALID,104,VALID,0,VALID,21.7266,VALID,303,VALID,0.169922,
2014-01-17, 02:32:04,VALID,1011.3,VALID,0,VALID,104,VALID,0.112112,VALID,21.7054,VALID,303,VALID,0.515234,
2014-01-17, 02:33:04,VALID,1011.31,VALID,0,VALID,104,VALID,0,VALID,21.686,VALID,303,VALID,0.00351562,
2014-01-17, 02:34:04,VALID,1011.32,VALID,0,VALID,104,VALID,0,VALID,21.6876,VALID,303,VALID,0.148047,
2014-01-17, 02:35:04,VALID,1011.34,VALID,0,VALID,104,VALID,0,VALID,21.647,VALID,304,VALID,0,
2014-01-17, 02:36:04,VALID,1011.31,VALID,0,VALID,104,VALID,0,VALID,21.6681,VALID,303,VALID,0,
2014-01-17, 02:37:04,VALID,1011.32,VALID,0,VALID,104,VALID,0,VALID,21.6487,VALID,303,VALID,0,
2014-01-17, 02:38:04,VALID,1011.32,VALID,0,VALID,104,VALID,0,VALID,21.6276,VALID,303,VALID,0.366797,
2014-01-17, 02:39:04,VALID,1011.33,VALID,0,VALID,104,VALID,0,VALID,21.6081,VALID,302,VALID,0.0335938,
2014-01-17, 02:40:04,VALID,1011.34,VALID,0,VALID,104,VALID,0,VALID,21.6097,VALID,304,VALID,0.00351562,
2014-01-17, 02:41:04,VALID,1011.35,VALID,0,VALID,104,VALID,0,VALID,21.5886,VALID,303,VALID,0.0316406,
2014-01-17, 02:42:04,VALID,1011.36,VALID,0,VALID,104,VALID,0,VALID,21.5691,VALID,304,VALID,0,
2014-01-17, 02:43:04,VALID,1011.41,VALID,0,VALID,104,VALID,0,VALID,21.5708,VALID,302,VALID,0.10625,
2014-01-17, 02:44:04,VALID,1011.4,VALID,0,VALID,104,VALID,0,VALID,21.5708,VALID,302,VALID,0.343359,
2014-01-17, 02:45:04,VALID,1011.39,VALID,0,VALID,104,VALID,0,VALID,21.5513,VALID,303,VALID,0.221094,
2014-01-17, 02:46:04,VALID,1011.39,VALID,0,VALID,104,VALID,0,VALID,21.5302,VALID,303,VALID,0.248047,
2014-01-17, 02:47:04,VALID,1011.42,VALID,0,VALID,104,VALID,0,VALID,21.5318,VALID,303,VALID,0.295703,
2014-01-17, 02:48:04,VALID,1011.41,VALID,0,VALID,104,VALID,0,VALID,21.5124,VALID,303,VALID,0.172266,
2014-01-17, 02:49:04,VALID,1011.41,VALID,0,VALID,104,VALID,0.112112,VALID,21.4913,VALID,303,VALID,0.247266,
2014-01-17, 02:50:04,VALID,1011.41,VALID,0,VALID,104,VALID,0,VALID,21.4734,VALID,303,VALID,0.248047,
2014-01-17, 02:51:04,VALID,1011.4,VALID,0,VALID,104,VALID,0,VALID,21.4539,VALID,302,VALID,0.146484,
2014-01-17, 02:52:04,VALID,1011.41,VALID,0,VALID,104,VALID,0,VALID,21.415,VALID,303,VALID,0,
2014-01-17, 02:53:04,VALID,1011.39,VALID,0,VALID,104,VALID,0,VALID,21.376,VALID,303,VALID,0.0964844,
2014-01-17, 02:54:04,VALID,1011.38,VALID,0,VALID,104,VALID,0,VALID,21.3371,VALID,303,VALID,0.177734,
2014-01-17, 02:55:04,VALID,1011.36,VALID,0,VALID,104,VALID,0,VALID,21.2965,VALID,303,VALID,0.119922,
2014-01-17, 02:56:04,VALID,1011.39,VALID,0,VALID,104,VALID,0,VALID,21.2771,VALID,303,VALID,0.469922,
2014-01-17, 02:57:04,VALID,1011.37,VALID,0,VALID,104,VALID,0,VALID,21.2982,VALID,303,VALID,0.334375,
2014-01-17, 02:58:04,VALID,1011.37,VALID,0,VALID,104,VALID,0,VALID,21.2787,VALID,303,VALID,0.321484,
2014-01-17, 02:59:04,VALID,1011.36,VALID,0,VALID,104,VALID,0,VALID,21.2592,VALID,302,VALID,0.265234,
2014-01-17, 03:00:04,VALID,1011.35,VALID,0,VALID,104,VALID,0,VALID,21.2381,VALID,303,VALID,0.190625,
2014-01-17, 03:01:04,VALID,1011.37,VALID,0,VALID,104,VALID,0,VALID,21.2397,VALID,303,VALID,0.174219,
2014-01-17, 03:02:04,VALID,1011.36,VALID,0,VALID,104,VALID,0,VALID,21.2397,VALID,303,VALID,0.317187,
2014-01-17, 03:03:04,VALID,1011.35,VALID,0,VALID,104,VALID,0,VALID,21.2203,VALID,303,VALID,0.410156,
2014-01-17, 03:04:04,VALID,1011.35,VALID,0,VALID,104,VALID,0.112112,VALID,21.1992,VALID,303,VALID,0,
2014-01-17, 03:05:04,VALID,1011.34,VALID,0,VALID,104,VALID,0,VALID,21.2024,VALID,303,VALID,0,
2014-01-17, 03:06:04,VALID,1011.35,VALID,0,VALID,104,VALID,0,VALID,21.1829,VALID,303,VALID,0.0234375,
2014-01-17, 03:07:04,VALID,1011.31,VALID,0,VALID,104,VALID,0,VALID,21.1829,VALID,303,VALID,0.213281,
2014-01-17, 03:08:04,VALID,1011.33,VALID,0,VALID,104,VALID,0,VALID,21.2024,VALID,303,VALID,0.261719,
2014-01-17, 03:09:04,VALID,1011.31,VALID,0,VALID,104,VALID,0,VALID,21.1424,VALID,303,VALID,0.383203,
2014-01-17, 03:10:04,VALID,1011.28,VALID,0,VALID,104,VALID,0,VALID,21.1635,VALID,303,VALID,0.421094,
2014-01-17, 03:11:04,VALID,1011.25,VALID,0,VALID,104,VALID,0,VALID,21.1845,VALID,303,VALID,0.360938,
2014-01-17, 03:12:04,VALID,1011.25,VALID,0,VALID,104,VALID,0,VALID,21.1635,VALID,303,VALID,0.280859,
2014-01-17, 03:13:04,VALID,1011.23,VALID,0,VALID,104,VALID,0,VALID,21.144,VALID,303,VALID,0,
2014-01-17, 03:14:04,VALID,1011.19,VALID,0,VALID,104,VALID,0,VALID,21.1035,VALID,303,VALID,0,
2014-01-17, 03:15:04,VALID,1011.21,VALID,0,VALID,104,VALID,0,VALID,21.1051,VALID,303,VALID,0.335547,
2014-01-17, 03:16:04,VALID,1011.18,VALID,0,VALID,104,VALID,0,VALID,21.1245,VALID,303,VALID,0,
2014-01-17, 03:17:04,VALID,1011.19,VALID,0,VALID,104,VALID,0,VALID,21.1245,VALID,303,VALID,0.250391,
2014-01-17, 03:18:04,VALID,1011.18,VALID,0,VALID,104,VALID,0,VALID,21.084,VALID,303,VALID,0.175781,
2014-01-17, 03:19:04,VALID,1011.18,VALID,0,VALID,104,VALID,0,VALID,21.1261,VALID,303,VALID,0.294141,
2014-01-17, 03:20:04,VALID,1011.18,VALID,0,VALID,104,VALID,0,VALID,21.0629,VALID,303,VALID,0.434766,
2014-01-17, 03:21:04,VALID,1011.2,VALID,0,VALID,104,VALID,0,VALID,21.0434,VALID,303,VALID,0.273438,
2014-01-17, 03:22:04,VALID,1011.19,VALID,0,VALID,104,VALID,0,VALID,21.024,VALID,303,VALID,0.0367187,
2014-01-17, 03:23:04,VALID,1011.2,VALID,0,VALID,104,VALID,0,VALID,21.045,VALID,303,VALID,0.225,
2014-01-17, 03:24:04,VALID,1011.21,VALID,0,VALID,104,VALID,0,VALID,21.024,VALID,303,VALID,0,
2014-01-17, 03:25:04,VALID,1011.23,VALID,0,VALID,104,VALID,0,VALID,21.045,VALID,303,VALID,0.264844,
2014-01-17, 03:26:04,VALID,1011.22,VALID,0,VALID,104,VALID,0,VALID,21.0645,VALID,303,VALID,0.198047,
2014-01-17, 03:27:04,VALID,1011.22,VALID,0,VALID,104,VALID,0,VALID,21.0434,VALID,303,VALID,0.183203,
2014-01-17, 03:28:04,VALID,1011.21,VALID,0,VALID,104,VALID,0,VALID,21.0645,VALID,303,VALID,0.244531,
2014-01-17, 03:29:04,VALID,1011.2,VALID,0,VALID,104,VALID,0,VALID,21.0645,VALID,303,VALID,0,
2014-01-17, 03:30:04,VALID,1011.17,VALID,0,VALID,104,VALID,0,VALID,21.0645,VALID,314,VALID,0.579687,
2014-01-17, 03:31:04,VALID,1011.19,VALID,0,VALID,104,VALID,0,VALID,21.045,VALID,314,VALID,0,
2014-01-17, 03:32:04,VALID,1011.16,VALID,0,VALID,104,VALID,0,VALID,21.0661,VALID,314,VALID,0.126563,
2014-01-17, 03:33:04,VALID,1011.18,VALID,0,VALID,104,VALID,0,VALID,21.084,VALID,314,VALID,0.311719,
2014-01-17, 03:34:04,VALID,1011.15,VALID,0,VALID,104,VALID,0,VALID,21.0824,VALID,314,VALID,0.358594,
2014-01-17, 03:35:04,VALID,1011.14,VALID,0,VALID,104,VALID,0.112112,VALID,21.0824,VALID,314,VALID,0.135547,
2014-01-17, 03:36:04,VALID,1011.14,VALID,0,VALID,104,VALID,0.112112,VALID,21.1035,VALID,314,VALID,0.0328125,
2014-01-17, 03:37:04,VALID,1011.12,VALID,0,VALID,104,VALID,0.112112,VALID,21.1035,VALID,314,VALID,0,
2014-01-17, 03:38:04,VALID,1011.14,VALID,0,VALID,104,VALID,0,VALID,21.0824,VALID,314,VALID,0.0867188,
2014-01-17, 03:39:04,VALID,1011.16,VALID,0,VALID,104,VALID,0.112112,VALID,21.1035,VALID,314,VALID,0.262891,
2014-01-17, 03:40:04,VALID,1011.16,VALID,0,VALID,104,VALID,0.112112,VALID,21.1035,VALID,314,VALID,0.0195313,
2014-01-17, 03:41:04,VALID,1011.16,VALID,0,VALID,104,VALID,0.112112,VALID,21.084,VALID,314,VALID,0.0546875,
2014-01-17, 03:42:04,VALID,1011.17,VALID,0,VALID,104,VALID,0.112112,VALID,21.084,VALID,314,VALID,0.516797,
2014-01-17, 03:43:04,VALID,1011.19,VALID,0,VALID,104,VALID,0.112112,VALID,21.0629,VALID,314,VALID,0.605859,
2014-01-17, 03:44:04,VALID,1011.18,VALID,0,VALID,104,VALID,0.112112,VALID,21.0645,VALID,314,VALID,0.323047,
2014-01-17, 03:45:04,VALID,1011.16,VALID,0,VALID,104,VALID,0,VALID,21.045,VALID,314,VALID,0.0210938,
2014-01-17, 03:46:04,VALID,1011.2,VALID,0,VALID,104,VALID,0,VALID,21.0045,VALID,314,VALID,0.164844,